Wetbulb
33.49 34.68 35.93 37.01 37.52 37.48 37.43 37.91 39.27 39.60 39.10 38.23 38.06 37.81 37.42 36.58 37.41 38.10 38.31 37.65 37.96 38.27 38.52 38.49 38.44 38.06 37.19 35.78 35.20 34.99 34.97 34.91 34.76 35.61 36.58 36.81 36.18 35.62 35.38 35.29 35.21 35.08 35.08 35.27 35.23 35.14 34.85 34.47 34.37 34.28 34.36 34.31 33.85 33.48 33.43 33.64 33.06 32.68 32.36 32.18 32.34 32.32 32.13 31.67 31.68 31.64 31.52 31.49 31.96
32.57 33.41 35.05 37.76 39.17 38.39 37.17 37.59 38.06 38.80 39.02 38.31 37.92 37.59 37.42 37.17 37.85 38.29 38.20 37.29 38.25 38.50 38.59 38.93 37.75 36.77 36.01 35.55 35.52 35.19 34.82 34.77 34.28 34.87 35.75 36.10 35.89 35.59 35.44 35.46 35.21 35.13 35.05 34.84 34.63 34.84 34.97 34.34 34.09 33.99 34.01 34.06 33.85 33.61 33.60 34.10 33.62 32.99 32.43 32.00 32.51 32.58 32.42 31.92 31.96 32.02 31.95 31.77 31.93
31.57 32.05 32.80 33.75 34.80 35.28 35.70 36.23 36.74 36.54 36.47 37.18 36.72 36.77 36.91 36.89 37.77 38.40 38.58 38.45 37.97 37.42 37.39 38.55 37.35 36.41 35.67 35.22 34.85 34.67 34.60 34.52 34.07 34.30 34.80 35.43 35.36 35.25 35.19 35.44 35.00 35.05 35.35 35.35 34.78 34.84 34.92 34.44 34.40 34.53 34.51 34.10 33.67 33.48 33.51 33.89 33.97 33.47 32.79 32.37 32.93 33.15 32.99 32.66 32.56 32.44 32.27 32.06 31.63
30.27 30.68 31.22 31.78 32.36 33.02 34.13 35.98 35.64 35.21 35.17 36.09 35.08 34.81 35.33 36.29 37.16 37.73 37.55 36.43 35.90 36.15 36.93 38.04 37.55 37.08 36.50 35.59 34.49 34.18 34.51 35.64 34.82 34.29 34.18 34.66 34.80 34.64 34.52 34.65 34.57 34.59 34.74 34.84 34.50 34.38 34.29 34.05 34.50 34.70 34.58 33.96 33.38 33.41 33.66 34.06 33.81 33.51 33.22 32.98 33.09 32.98 32.91 32.92 32.79 32.42 32.11 31.73 31.15
30.14 30.39 31.18 32.33 32.36 32.97 33.52 33.45 33.57 33.92 34.20 34.05 33.59 33.40 33.70 34.36 35.54 35.71 35.53 35.53 36.38 37.23 37.54 36.62 36.98 37.01 36.47 35.35 34.04 33.19 33.11 33.97 36.42 36.30 35.18 34.54 34.41 34.27 34.12 33.86 34.13 34.34 34.45 34.37 34.15 33.99 33.78 33.21 34.20 34.57 34.40 33.97 33.86 33.84 33.82 33.69 33.35 33.14 33.01 33.14 32.98 32.86 32.58 32.46 32.21 31.90 31.55 31.46 30.94
32.21 31.35 30.80 31.18 31.19 31.51 31.81 31.80 32.03 32.39 32.54 32.54 32.24 32.32 32.66 33.31 33.48 34.01 34.81 36.01 36.65 36.18 35.34 35.17 36.52 37.15 36.75 35.07 33.63 32.79 32.41 32.09 34.25 35.00 34.85 34.51 34.56 34.00 33.37 33.17 33.38 33.84 34.19 34.06 33.55 33.10 32.91 32.77 34.04 34.46 34.42 34.25 33.92 33.89 33.63 32.90 32.86 32.68 32.55 32.61 32.76 32.68 32.38 32.00 31.89 31.61 31.26 30.95 30.46
33.11 32.30 31.32 30.54 30.04 30.37 30.77 30.29 30.34 30.20 30.13 30.33 30.44 31.30 32.34 32.95 32.29 32.32 33.02 34.59 34.55 34.25 34.34 35.75 36.13 36.28 35.85 34.44 33.74 33.21 32.93 32.85 32.77 32.64 33.00 34.06 34.18 33.92 33.67 33.55 33.11 33.08 33.23 33.34 32.88 32.65 32.48 32.31 33.46 34.26 34.90 35.48 34.84 33.94 33.13 32.70 32.64 32.47 32.31 32.27 32.68 32.56 32.22 31.60 31.63 31.49 31.01 30.20 29.61
31.46 31.73 31.87 31.33 30.44 29.99 29.83 29.55 29.27 29.07 29.18 29.90 30.46 31.06 31.64 31.77 31.43 31.45 31.68 32.04 32.52 33.00 33.67 34.53 33.47 33.10 33.00 32.98 33.46 33.48 33.15 32.41 32.49 32.27 32.35 33.27 33.13 33.13 33.12 32.95 32.68 32.55 32.51 32.39 32.33 32.20 32.23 32.63 33.35 33.84 34.16 34.59 34.70 34.22 33.27 32.08 31.92 31.92 32.02 32.06 32.53 32.60 32.31 31.71 31.31 31.06 30.79 29.90 29.15
31.96 32.03 31.78 31.05 30.23 30.00 29.79 29.16 28.44 28.45 29.10 30.16 30.93 31.14 31.13 30.95 30.38 30.13 30.33 31.09 32.89 33.16 32.78 32.73 32.06 31.43 31.04 31.04 31.91 32.54 32.80 32.73 32.26 32.24 32.42 32.53 32.54 32.69 32.74 32.66 32.45 32.36 32.32 32.07 31.72 31.29 31.40 32.52 33.28 33.63 33.86 34.14 34.19 33.94 33.15 31.70 31.28 31.23 31.50 32.02 32.30 32.40 32.29 32.09 31.34 30.83 30.39 29.80 29.11
34.17 33.71 32.84 31.76 30.67 30.05 29.26 27.92 27.18 27.21 27.97 29.51 30.19 30.33 30.87 33.12 32.58 31.71 31.38 32.36 32.99 32.57 31.93 31.66 31.18 30.61 30.09 29.88 31.00 31.72 32.07 32.09 32.13 31.80 31.65 32.54 32.86 32.75 32.55 32.91 32.45 32.43 32.41 32.03 31.83 31.19 31.01 31.94 32.80 33.24 33.48 33.77 33.44 33.00 32.44 31.56 31.05 30.92 31.29 32.27 32.41 32.06 31.76 31.85 31.22 30.69 30.31 30.13 29.43
34.82 34.63 33.95 33.02 31.24 30.22 29.21 27.43 27.28 27.64 28.32 29.28 29.85 29.82 30.22 32.24 32.36 31.98 31.61 31.82 31.25 30.88 30.74 30.95 30.53 30.09 29.89 30.22 30.97 31.37 31.47 31.57 31.78 31.73 31.70 31.92 32.83 32.83 32.58 32.64 32.51 32.40 32.37 32.08 31.61 31.43 31.62 32.07 32.45 32.50 32.50 33.10 32.83 32.42 31.95 31.42 31.07 30.82 30.98 31.85 31.96 31.64 31.31 31.31 31.38 31.05 30.66 30.33 29.69
34.89 34.59 33.84 32.64 30.40 29.00 28.20 27.52 28.12 28.57 28.98 29.57 30.09 30.02 29.72 29.74 29.47 29.82 30.28 29.87 29.62 29.95 30.32 30.07 29.72 29.45 29.86 31.40 30.95 31.42 31.64 30.40 30.38 30.69 31.10 31.50 31.71 31.83 31.91 32.02 32.04 32.08 32.04 31.83 31.30 31.63 32.11 32.15 32.16 32.10 31.97 32.09 32.50 32.51 32.05 31.35 31.09 30.86 30.86 31.12 31.25 31.12 31.06 31.09 31.18 31.28 31.28 30.82 30.03
34.47 34.09 33.45 32.60 30.20 28.58 27.84 28.02 29.12 29.61 29.85 30.27 30.74 31.00 30.84 30.39 29.40 29.18 29.12 28.32 29.38 30.39 30.67 29.66 29.36 29.23 29.58 30.91 30.94 30.91 30.64 30.13 29.68 30.28 31.12 31.47 31.66 31.45 31.32 31.51 31.62 31.73 31.74 31.74 31.29 31.66 32.17 32.13 31.85 31.70 31.66 31.69 32.22 32.39 32.19 31.52 31.21 30.98 30.86 30.86 30.88 30.87 30.90 30.90 31.05 31.17 31.18 30.81 30.44
33.56 33.38 33.19 32.78 30.87 29.67 29.24 29.62 30.89 31.45 31.63 31.49 31.90 32.07 31.78 30.68 29.88 29.60 29.45 28.77 29.91 30.53 30.43 29.45 29.79 30.42 30.81 30.58 30.85 30.55 30.16 30.30 29.77 29.72 30.39 31.50 31.71 31.46 31.26 31.62 31.51 31.52 31.67 31.92 31.37 31.26 31.59 32.06 31.94 31.79 31.65 31.53 31.83 31.95 31.99 31.68 31.37 31.16 31.06 30.89 30.82 30.84 30.93 31.03 30.96 30.87 30.72 30.39 30.45
33.79 33.74 33.34 32.47 31.55 31.34 31.58 31.57 32.76 33.20 33.17 33.04 33.44 33.19 32.55 31.61 31.04 30.96 30.75 29.57 30.21 30.10 29.67 29.13 30.41 31.35 31.54 30.44 30.19 29.91 29.79 29.73 29.44 29.70 30.36 31.30 31.47 31.50 31.53 31.82 31.59 31.62 31.68 31.77 31.49 31.36 31.33 31.63 31.76 31.90 31.85 31.73 31.66 31.71 31.68 31.54 31.40 31.36 31.32 31.21 31.06 31.12 31.13 31.23 31.09 30.92 30.65 30.31 30.18
34.12 34.18 33.68 32.67 32.49 32.96 33.37 33.49 34.39 34.44 34.39 34.65 34.56 34.11 33.39 32.86 32.19 31.90 31.64 30.92 31.10 30.41 29.72 29.87 31.03 31.10 30.78 30.79 30.40 29.79 29.35 29.39 29.32 29.70 30.30 31.14 31.49 31.65 31.74 31.88 32.00 31.96 31.88 31.57 31.47 31.46 31.56 31.68 31.85 31.89 31.79 31.76 31.76 31.65 31.57 31.46 31.32 31.27 31.23 31.28 31.28 31.33 31.42 31.47 31.31 31.03 30.78 30.57 30.42
34.35 34.37 34.14 33.53 33.78 34.04 34.40 34.77 35.23 35.30 35.26 35.34 34.95 34.60 34.34 33.92 32.78 32.76 33.25 33.48 32.86 32.17 31.73 31.90 32.32 31.67 31.21 31.83 31.55 30.66 29.85 29.72 29.87 30.34 31.00 31.66 31.92 32.09 32.20 32.25 32.61 32.58 32.31 31.94 31.71 31.66 31.73 31.76 31.94 31.89 31.77 31.64 31.69 31.66 31.53 31.42 31.31 31.22 31.18 31.20 31.33 31.31 31.45 31.92 31.79 31.46 31.05 30.79 30.81
34.63 34.74 34.65 34.38 34.45 34.65 34.94 35.18 35.52 35.66 35.52 35.39 35.39 35.01 34.53 33.97 33.33 33.44 33.74 33.74 33.02 32.71 32.88 33.15 33.00 32.47 31.92 32.01 31.89 31.78 31.55 31.28 31.30 31.59 31.99 32.38 32.48 32.54 32.66 32.61 33.02 32.97 32.72 32.40 32.17 32.17 32.11 32.04 31.96 31.78 31.73 31.57 31.53 31.53 31.52 31.38 31.27 31.15 31.08 31.09 31.12 31.15 31.23 31.54 31.63 31.62 31.46 31.11 31.31
34.94 35.03 35.05 35.01 35.05 35.23 35.47 36.02 36.13 36.12 35.98 35.77 35.55 35.05 34.44 33.79 33.39 33.30 33.25 33.11 33.01 32.85 32.72 33.05 33.11 33.00 32.85 32.92 32.51 32.86 33.21 33.03 32.46 32.41 32.48 32.71 32.76 32.82 32.88 33.01 33.13 33.08 32.93 32.80 32.66 32.57 32.52 32.50 32.24 31.92 31.64 31.62 31.47 31.33 31.32 31.20 31.08 31.01 30.93 30.93 30.96 30.99 30.99 30.96 31.03 31.20 31.35 31.32 31.54
35.19 35.34 35.48 35.63 35.66 35.74 35.91 36.23 36.28 36.13 35.95 35.78 35.13 34.72 34.47 34.15 33.60 33.33 33.32 33.72 33.76 32.93 32.08 32.06 32.66 33.12 33.39 33.42 33.12 33.15 33.41 33.94 33.15 32.82 32.78 32.78 32.83 33.06 33.09 33.29 33.26 33.21 32.97 32.91 32.75 32.64 32.59 32.58 32.36 32.08 31.75 31.60 31.42 31.16 30.98 30.91 30.83 30.79 30.76 30.85 30.84 30.79 30.79 30.79 30.70 30.76 30.82 30.96 31.27
35.49 35.73 35.89 36.12 36.02 36.00 36.13 36.31 36.13 35.76 35.40 35.17 34.74 34.59 34.50 34.29 33.85 33.66 33.70 34.25 33.83 32.89 32.00 31.85 32.34 32.88 33.29 33.56 33.60 33.50 33.69 34.51 33.80 33.36 33.14 33.18 33.19 33.34 33.62 33.78 33.59 33.50 33.36 33.19 33.10 32.81 32.57 32.54 32.46 32.23 32.04 31.72 31.63 31.34 31.12 31.09 30.80 30.54 30.50 30.72 30.76 30.60 30.55 30.46 30.37 30.28 30.37 30.48 30.93
36.02 36.17 36.34 36.25 36.15 36.22 36.34 36.44 36.06 35.65 35.26 35.00 34.78 34.57 34.37 34.32 34.26 34.26 34.08 33.87 33.24 32.96 32.94 33.05 33.09 33.22 33.36 33.56 33.75 33.89 34.18 34.91 34.34 34.00 33.90 33.84 33.90 34.18 34.27 34.40 33.84 33.55 33.32 33.14 33.14 32.92 32.66 32.44 32.41 32.31 32.17 32.07 31.86 31.73 31.62 31.58 31.23 30.80 30.50 30.40 30.32 30.18 30.13 29.99 30.08 29.99 30.08 30.19 30.47
36.31 36.40 36.52 36.56 36.30 36.58 36.92 36.71 35.99 35.43 35.11 35.07 34.95 34.77 34.66 34.70 34.83 34.75 34.45 33.73 33.95 34.04 34.12 34.23 34.28 34.08 33.93 33.87 33.81 33.81 33.87 34.18 34.26 34.35 34.30 34.19 34.12 34.15 34.26 34.33 33.89 33.52 33.37 33.51 33.48 33.26 32.99 32.72 32.59 32.41 32.28 32.22 32.01 32.01 31.97 31.80 31.58 31.19 30.77 30.35 30.19 29.92 29.74 29.60 29.58 29.62 29.79 29.92 30.19
36.15 36.37 36.62 37.07 36.33 36.06 35.99 35.70 35.33 35.19 35.28 35.48 35.50 35.46 35.35 35.28 35.22 35.03 34.73 34.44 34.51 34.51 34.59 35.03 35.38 35.21 34.84 34.51 34.03 33.60 33.41 33.47 33.79 34.14 34.43 34.54 34.71 34.80 34.66 34.55 34.30 34.07 34.07 34.26 34.77 34.96 34.88 34.55 33.77 33.23 32.96 32.71 32.57 32.35 32.13 31.66 31.41 31.08 30.74 30.39 30.09 29.92 29.75 29.49 29.24 29.10 29.19 29.33 29.80
35.81 36.08 36.23 36.30 36.02 35.91 35.80 35.56 35.41 35.59 35.75 36.06 36.10 36.01 35.88 35.75 35.62 35.41 35.32 35.13 35.04 35.01 35.16 35.28 35.51 35.57 35.56 35.46 34.97 34.62 34.25 33.92 33.99 34.25 34.57 34.93 35.31 35.44 35.50 35.53 35.45 35.21 35.15 35.47 37.76 39.12 39.49 38.99 37.57 36.09 34.78 33.90 33.36 32.79 32.23 31.73 31.17 30.88 30.63 30.54 30.32 30.14 29.92 29.55 29.26 29.05 28.87 28.79 29.19
35.44 35.50 35.54 35.58 35.58 35.48 35.48 35.43 35.52 35.66 35.88 36.03 36.03 36.03 36.13 36.20 36.22 36.01 35.64 35.60 35.72 35.72 35.68 35.77 35.74 36.39 36.96 36.89 36.56 36.23 35.94 35.72 35.43 35.20 35.11 35.53 35.77 36.00 36.15 36.32 36.32 35.56 35.26 36.65 39.25 40.83 41.76 42.16 41.84 40.33 38.07 35.62 34.82 34.02 33.19 32.57 31.73 31.17 30.77 30.60 30.69 30.64 30.37 30.06 29.92 29.68 29.44 29.20 29.05
35.06 34.97 34.97 35.20 35.01 35.01 35.11 35.48 35.62 35.70 35.79 35.88 35.93 36.08 36.32 36.56 36.63 36.32 36.06 36.07 36.28 36.43 36.48 36.48 36.34 37.32 38.15 37.59 36.89 36.65 36.62 36.82 36.62 36.30 35.94 35.73 35.88 36.01 36.38 36.78 36.45 35.41 35.26 37.61 40.14 41.49 42.42 43.08 43.59 42.97 40.89 37.07 36.62 36.04 35.43 34.94 33.79 32.81 32.07 31.77 31.84 31.71 31.42 30.88 30.68 30.62 30.56 30.26 29.70
34.52 34.52 34.57 34.56 34.52 34.70 35.06 35.34 35.48 35.66 35.90 36.19 36.33 36.56 36.69 36.61 36.15 36.08 36.17 36.46 36.66 36.77 36.94 37.28 37.57 37.94 37.99 37.57 36.99 36.71 36.69 36.83 37.03 37.00 36.92 36.70 36.51 36.37 36.44 37.00 36.81 36.70 37.50 39.65 41.18 42.11 42.81 43.46 43.94 44.03 43.32 41.37 39.59 38.26 37.31 36.77 36.18 35.70 35.28 34.80 34.14 33.43 32.62 32.03 31.77 31.57 31.33 31.08 30.60
34.04 34.03 34.02 33.97 34.25 34.66 35.01 35.28 35.48 35.87 36.21 36.49 36.62 36.69 36.65 36.50 36.31 36.30 36.34 36.48 36.48 36.68 37.13 37.79 38.49 38.43 38.00 37.60 37.48 37.28 37.17 37.10 37.31 37.47 37.45 37.08 36.77 36.69 36.75 36.77 36.85 37.89 39.46 41.54 42.12 42.64 43.07 43.51 43.90 44.21 44.25 43.99 42.31 40.98 39.95 39.02 38.47 38.36 38.25 37.77 36.79 35.62 34.36 33.23 32.80 32.47 32.22 31.88 31.64
33.81 33.75 33.75 33.79 34.15 34.56 34.97 35.38 35.87 36.16 36.49 36.92 36.83 36.66 36.55 36.62 36.48 36.52 36.52 36.52 36.51 36.90 37.44 38.01 38.14 37.95 37.69 37.63 37.67 37.71 37.79 37.86 37.97 37.82 37.40 36.72 36.45 36.42 36.66 37.03 36.83 37.51 39.05 41.32 42.11 42.64 42.99 43.30 43.65 44.04 44.26 44.43 43.38 42.19 41.02 40.14 39.61 39.51 39.55 39.52 38.85 37.79 36.56 35.16 33.89 32.99 32.53 32.35 32.37
33.58 33.52 33.65 33.75 34.15 34.52 34.94 35.50 35.98 36.34 36.58 36.87 36.76 36.68 36.62 36.61 36.48 36.61 36.70 36.79 37.08 37.82 38.28 37.90 37.39 37.15 37.19 37.44 37.62 37.65 37.63 37.84 37.78 37.50 37.04 36.41 36.91 37.11 37.01 36.86 36.46 37.09 38.76 41.06 41.86 42.34 42.78 43.13 43.53 43.83 44.17 44.34 43.53 42.32 41.06 40.26 39.95 39.89 39.93 39.86 39.68 39.17 38.37 37.26 35.86 34.56 33.41 32.67 32.56
33.58 33.48 33.48 33.70 34.07 34.49 35.00 35.47 35.94 36.23 36.45 36.37 36.43 36.46 36.48 36.34 36.52 36.70 36.93 37.19 37.39 37.52 37.43 37.06 36.82 36.86 37.00 37.23 37.36 37.35 37.30 37.34 37.29 37.16 36.98 36.72 36.41 36.29 36.19 36.42 36.01 36.73 38.49 40.90 41.66 42.23 42.58 43.05 43.40 43.83 44.09 44.26 43.53 42.28 41.08 40.49 40.18 40.19 40.07 39.73 39.48 39.29 39.14 38.56 37.83 36.53 35.02 33.89 33.12
33.50 33.36 33.40 33.49 33.92 34.35 34.87 35.33 35.71 35.94 36.06 36.16 36.14 36.08 36.15 36.27 36.54 36.67 36.84 37.11 37.25 37.06 36.70 36.74 36.78 36.92 36.97 37.10 37.11 37.06 37.02 37.08 37.09 37.33 37.56 37.48 36.71 36.17 35.89 36.12 35.87 37.19 39.21 41.07 41.80 42.33 42.76 43.19 43.49 43.83 44.17 44.39 43.44 42.13 41.05 40.67 40.44 40.30 40.17 39.93 39.60 39.47 39.32 39.13 38.89 38.03 36.76 35.37 34.27
33.25 33.12 33.12 33.27 33.78 34.23 34.67 35.05 35.31 35.46 35.53 35.57 35.65 35.72 35.75 35.90 36.02 36.15 36.48 37.05 37.36 37.22 37.11 37.00 37.00 37.05 37.05 36.92 36.83 36.71 36.87 37.46 37.21 36.85 36.38 36.02 35.61 35.28 35.17 35.37 35.76 37.64 39.84 41.35 41.99 42.51 42.98 43.36 43.62 43.92 44.09 44.22 42.88 41.65 40.70 40.52 40.20 40.00 39.76 39.61 39.58 39.45 39.26 38.93 38.64 38.13 37.38 36.34 35.30
32.67 32.68 32.93 33.19 33.63 34.02 34.40 34.67 34.82 34.92 34.94 34.90 34.99 35.16 35.36 35.47 35.54 35.78 36.30 37.23 37.59 37.34 37.04 36.94 36.97 36.93 36.88 36.85 36.56 36.42 36.43 36.63 36.38 36.13 35.86 35.59 35.17 34.93 34.86 34.96 35.42 37.46 39.80 41.22 41.87 42.38 42.89 43.28 43.58 43.75 43.75 43.33 41.94 40.87 40.27 39.99 39.70 39.45 39.20 39.10 39.06 38.80 38.54 38.26 37.93 37.60 37.31 36.80 36.13
32.38 32.57 32.86 33.26 33.61 33.92 34.15 34.36 34.43 34.41 34.35 34.33 34.45 34.67 34.88 35.20 35.39 35.79 36.30 37.28 37.17 36.74 36.31 36.44 36.34 36.18 36.03 36.08 36.10 36.38 36.57 36.16 35.93 35.85 35.78 35.78 35.17 34.72 34.43 34.48 34.77 36.65 39.05 40.78 41.48 42.12 42.59 43.11 43.32 43.49 43.20 42.31 41.04 40.31 39.92 39.49 39.23 39.02 38.77 38.64 38.68 38.60 38.52 38.12 37.66 37.46 37.32 37.12 36.34
32.84 32.97 33.12 33.37 33.58 33.79 33.88 34.05 33.99 33.93 33.83 33.86 34.10 34.27 34.48 34.74 35.12 35.58 36.08 36.73 36.20 35.78 35.71 35.85 35.80 35.75 35.60 35.54 35.84 36.18 36.32 36.21 35.87 35.68 35.69 36.01 35.57 35.03 34.56 34.56 34.45 35.75 37.95 40.13 41.13 41.86 42.29 42.77 43.02 43.02 42.47 41.18 40.20 39.72 39.47 39.16 38.93 38.72 38.44 38.34 38.35 38.28 38.29 38.16 37.84 37.33 36.82 36.36 35.98
33.38 33.30 33.27 33.32 33.36 33.53 33.64 33.68 33.53 33.42 33.42 33.55 33.86 34.11 34.36 34.53 34.85 35.31 35.89 36.64 35.77 35.38 35.23 35.32 35.28 35.34 35.43 35.50 35.69 35.82 35.90 35.93 35.97 35.85 35.57 35.49 35.34 34.96 34.70 34.49 34.38 35.33 37.03 39.40 40.70 41.52 42.08 42.46 42.72 42.68 42.08 40.56 39.80 39.33 39.02 38.74 38.43 38.26 38.04 37.91 37.97 37.88 37.88 37.94 37.97 37.69 37.12 36.15 37.33
33.44 33.36 33.20 33.11 33.02 33.08 33.14 33.14 32.96 33.00 33.08 33.29 33.65 33.90 34.16 34.37 34.73 35.27 35.91 36.31 35.55 34.98 34.79 34.68 34.72 34.92 35.23 35.70 35.76 35.79 35.68 35.64 35.77 35.82 35.62 35.07 35.14 35.61 35.89 35.26 34.96 35.57 37.04 39.26 40.56 41.30 41.69 42.08 42.38 42.47 42.12 40.78 39.71 39.05 38.65 38.14 37.71 37.48 37.40 37.37 37.29 37.24 37.21 37.32 37.34 37.30 37.05 36.32 38.60
33.32 33.18 32.98 32.73 32.69 32.69 32.62 32.58 32.55 32.77 33.00 33.24 33.30 33.51 33.81 34.15 34.87 35.47 35.80 35.86 35.09 34.62 34.34 34.30 34.32 34.58 35.15 35.97 35.69 35.44 35.15 35.26 35.21 35.30 35.36 35.21 35.54 36.76 37.45 36.50 35.60 35.74 36.74 38.75 39.94 40.65 41.12 41.56 41.90 42.12 41.77 40.45 39.36 38.67 38.26 37.71 37.19 36.88 36.77 36.75 36.72 36.55 36.51 36.63 36.69 36.78 36.53 35.97 37.54
32.96 32.75 32.57 32.47 32.37 32.20 32.11 32.02 32.18 32.49 32.79 32.89 32.84 33.41 34.10 34.81 34.92 34.93 34.87 34.71 34.33 34.11 34.09 34.20 34.14 34.27 34.75 35.46 35.33 34.85 34.53 34.51 34.68 34.79 34.94 35.22 35.44 36.35 36.91 35.93 34.96 34.56 34.99 36.54 38.40 39.63 40.38 40.98 41.46 41.80 41.58 40.22 38.90 38.34 38.03 37.60 37.00 36.59 36.34 36.37 36.36 36.20 36.00 36.02 36.12 36.16 35.99 35.45 35.53
MSLP
1019.60 1019.52 1019.44 1019.36 1019.28 1019.24 1019.16 1019.00 1018.84 1018.80 1018.72 1018.72 1018.72 1018.60 1018.56 1018.64 1018.64 1018.48 1018.32 1018.28 1018.24 1018.16 1018.00 1017.84 1017.72 1017.60 1017.56 1017.56 1017.64 1017.72 1017.72 1017.76 1017.80 1017.80 1017.80 1017.80 1017.76 1017.76 1017.84 1017.84 1017.92 1017.96 1017.96 1018.00 1018.04 1018.16 1018.28 1018.40 1018.52 1018.64 1018.72 1018.72 1018.80 1018.84 1018.84 1018.84 1018.92 1019.00 1019.08 1019.12 1019.12 1019.16 1019.24 1019.36 1019.32 1019.32 1019.40 1019.44 1019.48
1019.52 1019.40 1019.28 1019.20 1019.12 1019.04 1019.00 1018.88 1018.76 1018.60 1018.48 1018.44 1018.40 1018.32 1018.32 1018.36 1018.36 1018.24 1018.12 1018.00 1017.92 1017.84 1017.72 1017.60 1017.48 1017.44 1017.44 1017.40 1017.44 1017.48 1017.56 1017.60 1017.60 1017.60 1017.60 1017.60 1017.56 1017.56 1017.56 1017.64 1017.68 1017.72 1017.76 1017.84 1017.88 1018.00 1018.08 1018.20 1018.36 1018.44 1018.48 1018.52 1018.56 1018.56 1018.56 1018.48 1018.64 1018.72 1018.80 1018.80 1018.84 1018.88 1019.00 1019.04 1018.96 1018.96 1019.04 1019.12 1019.16
1019.36 1019.28 1019.28 1019.24 1019.12 1019.04 1019.00 1018.84 1018.68 1018.52 1018.36 1018.20 1018.12 1018.12 1018.16 1018.12 1018.08 1018.00 1017.84 1017.72 1017.60 1017.60 1017.56 1017.44 1017.32 1017.28 1017.28 1017.28 1017.28 1017.32 1017.36 1017.40 1017.44 1017.44 1017.44 1017.44 1017.40 1017.40 1017.44 1017.44 1017.48 1017.52 1017.56 1017.60 1017.68 1017.72 1017.84 1018.00 1018.12 1018.20 1018.28 1018.28 1018.28 1018.28 1018.20 1018.20 1018.28 1018.44 1018.48 1018.48 1018.52 1018.60 1018.68 1018.68 1018.60 1018.68 1018.80 1018.84 1018.88
1019.28 1019.24 1019.16 1019.12 1019.00 1018.92 1018.80 1018.60 1018.44 1018.32 1018.16 1018.04 1018.00 1017.96 1017.96 1017.88 1017.84 1017.72 1017.64 1017.56 1017.52 1017.48 1017.44 1017.28 1017.20 1017.12 1017.08 1017.12 1017.12 1017.16 1017.16 1017.12 1017.20 1017.28 1017.28 1017.24 1017.20 1017.20 1017.20 1017.24 1017.28 1017.32 1017.32 1017.40 1017.48 1017.56 1017.60 1017.76 1017.88 1018.00 1018.00 1018.00 1018.00 1017.96 1017.88 1017.88 1018.00 1018.12 1018.16 1018.16 1018.28 1018.32 1018.36 1018.28 1018.28 1018.36 1018.44 1018.48 1018.56
1019.08 1019.00 1018.96 1018.84 1018.76 1018.64 1018.52 1018.40 1018.28 1018.16 1018.00 1017.92 1017.92 1017.88 1017.80 1017.72 1017.64 1017.56 1017.56 1017.52 1017.40 1017.20 1017.08 1017.04 1017.00 1016.96 1016.92 1016.96 1017.00 1017.00 1017.00 1017.00 1017.00 1017.04 1017.08 1017.04 1017.00 1017.00 1017.04 1017.12 1017.16 1017.12 1017.12 1017.20 1017.28 1017.36 1017.44 1017.60 1017.72 1017.72 1017.72 1017.68 1017.68 1017.60 1017.56 1017.56 1017.72 1017.80 1017.84 1017.84 1017.92 1018.00 1018.00 1018.00 1018.00 1018.04 1018.16 1018.16 1018.20
1018.84 1018.76 1018.68 1018.60 1018.52 1018.44 1018.36 1018.28 1018.16 1018.04 1017.96 1017.88 1017.88 1017.80 1017.64 1017.52 1017.44 1017.44 1017.40 1017.28 1017.08 1016.92 1016.88 1016.92 1016.88 1016.84 1016.84 1016.84 1016.84 1016.88 1016.88 1016.92 1016.88 1016.88 1016.88 1016.88 1016.84 1016.84 1016.88 1016.96 1016.96 1016.96 1016.96 1017.00 1017.12 1017.20 1017.28 1017.44 1017.52 1017.48 1017.44 1017.44 1017.36 1017.28 1017.20 1017.36 1017.48 1017.56 1017.60 1017.60 1017.60 1017.64 1017.68 1017.72 1017.68 1017.76 1017.84 1017.88 1017.88
1018.68 1018.60 1018.48 1018.40 1018.32 1018.28 1018.16 1018.08 1018.00 1017.96 1017.92 1017.92 1017.84 1017.72 1017.48 1017.28 1017.24 1017.24 1017.12 1017.00 1016.88 1016.80 1016.76 1016.72 1016.76 1016.72 1016.72 1016.76 1016.76 1016.72 1016.72 1016.72 1016.72 1016.76 1016.76 1016.72 1016.68 1016.68 1016.72 1016.72 1016.72 1016.76 1016.80 1016.80 1016.88 1017.00 1017.12 1017.28 1017.32 1017.28 1017.16 1017.12 1017.04 1017.00 1017.00 1017.12 1017.20 1017.28 1017.32 1017.28 1017.24 1017.28 1017.36 1017.36 1017.40 1017.44 1017.56 1017.56 1017.60
1018.68 1018.56 1018.36 1018.20 1018.16 1018.08 1018.00 1017.92 1017.88 1017.92 1017.92 1017.84 1017.72 1017.52 1017.28 1017.08 1017.04 1017.00 1016.88 1016.84 1016.76 1016.68 1016.56 1016.56 1016.60 1016.60 1016.60 1016.64 1016.60 1016.56 1016.56 1016.56 1016.56 1016.56 1016.56 1016.52 1016.52 1016.52 1016.48 1016.48 1016.56 1016.56 1016.56 1016.64 1016.72 1016.84 1016.92 1017.00 1017.00 1017.00 1016.92 1016.84 1016.80 1016.68 1016.68 1016.80 1016.92 1017.00 1017.00 1016.96 1016.88 1016.92 1017.00 1017.04 1017.08 1017.12 1017.20 1017.24 1017.28
1018.80 1018.52 1018.28 1018.16 1018.00 1017.96 1017.84 1017.76 1017.80 1017.84 1017.80 1017.68 1017.44 1017.20 1017.00 1016.92 1016.84 1016.80 1016.72 1016.68 1016.44 1016.36 1016.36 1016.36 1016.36 1016.40 1016.44 1016.44 1016.44 1016.44 1016.40 1016.40 1016.36 1016.36 1016.36 1016.32 1016.32 1016.28 1016.28 1016.28 1016.32 1016.36 1016.36 1016.40 1016.48 1016.60 1016.72 1016.76 1016.72 1016.68 1016.60 1016.56 1016.48 1016.40 1016.36 1016.52 1016.64 1016.72 1016.68 1016.60 1016.56 1016.56 1016.60 1016.64 1016.72 1016.80 1016.84 1016.88 1016.96
1018.88 1018.60 1018.40 1018.28 1018.08 1017.96 1017.88 1017.84 1017.76 1017.72 1017.64 1017.48 1017.20 1017.00 1016.84 1016.76 1016.68 1016.56 1016.48 1016.36 1016.24 1016.24 1016.20 1016.16 1016.12 1016.16 1016.20 1016.20 1016.20 1016.16 1016.16 1016.16 1016.16 1016.16 1016.12 1016.08 1016.08 1016.04 1016.00 1016.00 1016.04 1016.08 1016.08 1016.12 1016.24 1016.36 1016.44 1016.48 1016.48 1016.40 1016.28 1016.24 1016.20 1016.16 1016.16 1016.24 1016.36 1016.40 1016.36 1016.28 1016.28 1016.28 1016.28 1016.28 1016.32 1016.44 1016.44 1016.56 1016.56
1018.80 1018.64 1018.48 1018.40 1018.24 1018.16 1018.16 1018.12 1017.92 1017.72 1017.56 1017.36 1017.12 1016.88 1016.72 1016.60 1016.48 1016.32 1016.24 1016.20 1016.24 1016.16 1016.00 1015.84 1015.92 1015.96 1015.96 1015.88 1015.88 1015.88 1015.88 1015.92 1015.88 1015.88 1015.88 1015.84 1015.84 1015.76 1015.76 1015.76 1015.76 1015.76 1015.76 1015.84 1015.88 1016.00 1016.16 1016.16 1016.16 1016.04 1015.96 1015.88 1015.92 1015.92 1015.96 1016.00 1016.12 1016.12 1016.04 1015.96 1015.96 1015.96 1015.96 1015.88 1015.92 1016.00 1016.12 1016.16 1016.16
1018.72 1018.52 1018.40 1018.28 1018.28 1018.28 1018.28 1018.28 1018.08 1017.84 1017.64 1017.40 1017.08 1016.84 1016.64 1016.44 1016.28 1016.16 1016.12 1016.16 1016.12 1015.92 1015.72 1015.64 1015.72 1015.72 1015.68 1015.60 1015.56 1015.56 1015.56 1015.64 1015.68 1015.72 1015.68 1015.64 1015.56 1015.52 1015.52 1015.52 1015.48 1015.44 1015.44 1015.48 1015.56 1015.72 1015.76 1015.80 1015.72 1015.72 1015.68 1015.60 1015.64 1015.68 1015.72 1015.72 1015.80 1015.84 1015.72 1015.64 1015.68 1015.68 1015.64 1015.56 1015.56 1015.64 1015.72 1015.72 1015.80
1018.56 1018.40 1018.24 1018.12 1018.08 1018.12 1018.12 1018.08 1017.96 1017.84 1017.64 1017.40 1017.04 1016.72 1016.48 1016.28 1016.16 1016.12 1016.08 1016.04 1015.88 1015.68 1015.52 1015.48 1015.52 1015.52 1015.44 1015.36 1015.32 1015.32 1015.36 1015.40 1015.44 1015.44 1015.44 1015.36 1015.28 1015.28 1015.28 1015.24 1015.20 1015.16 1015.12 1015.16 1015.24 1015.32 1015.36 1015.36 1015.36 1015.32 1015.32 1015.28 1015.28 1015.28 1015.28 1015.36 1015.44 1015.44 1015.44 1015.36 1015.36 1015.32 1015.28 1015.16 1015.20 1015.28 1015.32 1015.40 1015.40
1018.40 1018.28 1018.16 1018.00 1017.96 1017.96 1017.92 1017.80 1017.68 1017.56 1017.40 1017.20 1016.92 1016.60 1016.28 1016.08 1016.00 1016.00 1016.00 1015.92 1015.72 1015.48 1015.40 1015.36 1015.32 1015.28 1015.20 1015.12 1015.12 1015.08 1015.08 1015.08 1015.12 1015.20 1015.16 1015.12 1015.04 1015.00 1015.00 1014.96 1014.92 1014.84 1014.84 1014.84 1014.88 1014.92 1014.96 1014.92 1014.88 1014.88 1014.88 1014.88 1014.88 1014.84 1014.84 1014.96 1015.00 1015.00 1015.00 1015.00 1015.00 1014.96 1014.84 1014.80 1014.80 1014.92 1015.00 1015.04 1015.00
1018.24 1018.08 1017.96 1017.84 1017.80 1017.76 1017.72 1017.60 1017.44 1017.28 1017.08 1016.92 1016.64 1016.36 1016.16 1016.00 1015.84 1015.80 1015.80 1015.72 1015.56 1015.40 1015.28 1015.28 1015.16 1015.04 1015.00 1014.96 1014.92 1014.92 1014.88 1014.92 1015.00 1015.00 1014.96 1014.84 1014.80 1014.76 1014.72 1014.68 1014.60 1014.56 1014.56 1014.52 1014.52 1014.56 1014.56 1014.52 1014.44 1014.44 1014.44 1014.44 1014.44 1014.44 1014.44 1014.56 1014.56 1014.56 1014.56 1014.56 1014.56 1014.48 1014.44 1014.40 1014.44 1014.56 1014.64 1014.64 1014.64
1018.08 1017.92 1017.80 1017.72 1017.64 1017.56 1017.48 1017.36 1017.20 1017.00 1016.84 1016.64 1016.32 1016.16 1016.04 1015.88 1015.72 1015.68 1015.68 1015.56 1015.44 1015.28 1015.24 1015.12 1014.96 1014.84 1014.76 1014.72 1014.72 1014.80 1014.84 1014.84 1014.84 1014.84 1014.80 1014.68 1014.60 1014.52 1014.44 1014.40 1014.28 1014.28 1014.24 1014.20 1014.24 1014.20 1014.16 1014.12 1014.04 1014.04 1014.00 1014.00 1014.00 1014.00 1014.00 1014.12 1014.12 1014.16 1014.16 1014.16 1014.08 1014.04 1014.00 1014.00 1014.04 1014.12 1014.16 1014.20 1014.24
1018.00 1017.84 1017.72 1017.60 1017.52 1017.40 1017.28 1017.12 1017.00 1016.80 1016.60 1016.40 1016.16 1016.00 1015.88 1015.76 1015.64 1015.60 1015.56 1015.44 1015.36 1015.28 1015.16 1014.96 1014.80 1014.72 1014.60 1014.56 1014.56 1014.60 1014.68 1014.64 1014.64 1014.60 1014.56 1014.44 1014.36 1014.28 1014.16 1014.08 1014.00 1013.88 1013.88 1013.88 1013.92 1013.88 1013.80 1013.72 1013.72 1013.68 1013.64 1013.60 1013.56 1013.56 1013.56 1013.64 1013.72 1013.72 1013.72 1013.68 1013.68 1013.64 1013.64 1013.60 1013.64 1013.72 1013.72 1013.80 1013.76
1017.88 1017.72 1017.56 1017.48 1017.36 1017.24 1017.08 1016.92 1016.76 1016.56 1016.44 1016.24 1016.04 1015.84 1015.72 1015.60 1015.56 1015.44 1015.36 1015.28 1015.28 1015.28 1015.16 1015.00 1014.84 1014.72 1014.68 1014.56 1014.44 1014.44 1014.44 1014.44 1014.40 1014.32 1014.28 1014.16 1014.08 1014.00 1013.92 1013.84 1013.68 1013.60 1013.60 1013.60 1013.56 1013.48 1013.44 1013.36 1013.32 1013.32 1013.32 1013.28 1013.24 1013.16 1013.16 1013.20 1013.28 1013.28 1013.28 1013.28 1013.28 1013.28 1013.24 1013.24 1013.28 1013.28 1013.32 1013.36 1013.28
1017.80 1017.60 1017.48 1017.32 1017.20 1017.04 1016.88 1016.72 1016.56 1016.40 1016.20 1016.04 1015.84 1015.72 1015.56 1015.44 1015.40 1015.28 1015.16 1015.04 1015.00 1015.04 1015.04 1014.96 1014.84 1014.72 1014.68 1014.56 1014.44 1014.40 1014.32 1014.28 1014.20 1014.12 1014.00 1013.96 1013.88 1013.84 1013.72 1013.64 1013.52 1013.44 1013.44 1013.40 1013.28 1013.16 1013.08 1013.00 1013.00 1013.00 1013.00 1013.00 1012.96 1012.88 1012.84 1012.84 1012.84 1012.84 1012.84 1012.84 1012.84 1012.84 1012.84 1012.84 1012.88 1012.92 1012.92 1012.92 1012.84
1017.72 1017.56 1017.40 1017.20 1017.04 1016.88 1016.72 1016.56 1016.40 1016.24 1016.04 1015.88 1015.76 1015.64 1015.48 1015.32 1015.24 1015.16 1015.04 1014.84 1014.72 1014.72 1014.80 1014.72 1014.60 1014.48 1014.40 1014.28 1014.28 1014.20 1014.12 1014.08 1014.08 1014.00 1013.84 1013.72 1013.72 1013.56 1013.44 1013.40 1013.28 1013.24 1013.24 1013.20 1013.12 1013.00 1012.92 1012.80 1012.76 1012.76 1012.76 1012.72 1012.72 1012.64 1012.60 1012.56 1012.52 1012.48 1012.48 1012.44 1012.48 1012.44 1012.44 1012.48 1012.52 1012.56 1012.56 1012.56 1012.52
1017.60 1017.44 1017.28 1017.08 1016.96 1016.80 1016.60 1016.44 1016.28 1016.12 1015.96 1015.80 1015.68 1015.56 1015.36 1015.20 1015.08 1015.00 1014.84 1014.68 1014.56 1014.56 1014.56 1014.44 1014.32 1014.20 1014.08 1013.96 1013.92 1013.84 1013.72 1013.72 1013.72 1013.64 1013.52 1013.44 1013.32 1013.16 1013.04 1013.00 1013.00 1012.96 1012.96 1012.96 1012.88 1012.80 1012.72 1012.68 1012.64 1012.60 1012.56 1012.56 1012.52 1012.44 1012.40 1012.32 1012.28 1012.20 1012.16 1012.12 1012.04 1012.00 1012.00 1012.04 1012.12 1012.16 1012.16 1012.16 1012.16
1017.44 1017.28 1017.12 1016.96 1016.80 1016.60 1016.44 1016.28 1016.12 1016.00 1015.84 1015.72 1015.52 1015.40 1015.24 1015.08 1014.92 1014.76 1014.60 1014.48 1014.44 1014.36 1014.28 1014.16 1014.04 1013.96 1013.84 1013.72 1013.64 1013.48 1013.36 1013.28 1013.28 1013.20 1013.12 1013.00 1012.88 1012.72 1012.60 1012.60 1012.60 1012.60 1012.56 1012.56 1012.56 1012.52 1012.44 1012.40 1012.40 1012.36 1012.36 1012.32 1012.24 1012.16 1012.12 1012.04 1012.00 1011.88 1011.80 1011.72 1011.64 1011.60 1011.60 1011.64 1011.72 1011.72 1011.76 1011.76 1011.76
1017.32 1017.16 1017.00 1016.84 1016.68 1016.48 1016.28 1016.16 1016.00 1015.84 1015.72 1015.56 1015.36 1015.20 1015.08 1014.88 1014.72 1014.52 1014.36 1014.28 1014.24 1014.12 1014.00 1013.92 1013.80 1013.68 1013.56 1013.48 1013.40 1013.28 1013.12 1013.00 1012.88 1012.80 1012.72 1012.64 1012.52 1012.36 1012.24 1012.20 1012.16 1012.16 1012.08 1012.00 1012.00 1012.00 1012.00 1011.96 1011.92 1011.92 1011.96 1011.96 1011.84 1011.80 1011.76 1011.72 1011.64 1011.56 1011.44 1011.32 1011.24 1011.20 1011.20 1011.20 1011.28 1011.28 1011.32 1011.36 1011.40
1017.20 1017.04 1016.88 1016.72 1016.52 1016.36 1016.20 1016.04 1015.92 1015.76 1015.60 1015.44 1015.24 1015.04 1014.84 1014.68 1014.48 1014.32 1014.16 1014.04 1013.96 1013.84 1013.76 1013.68 1013.56 1013.44 1013.28 1013.24 1013.12 1013.08 1013.00 1012.80 1012.60 1012.44 1012.28 1012.20 1012.16 1012.08 1011.96 1011.84 1011.72 1011.56 1011.36 1011.24 1011.20 1011.20 1011.28 1011.28 1011.28 1011.28 1011.28 1011.36 1011.32 1011.28 1011.28 1011.24 1011.24 1011.16 1011.04 1010.96 1010.84 1010.84 1010.80 1010.80 1010.84 1010.88 1010.96 1010.96 1011.00
1017.12 1016.92 1016.76 1016.56 1016.44 1016.24 1016.08 1015.96 1015.84 1015.64 1015.44 1015.24 1015.04 1014.84 1014.72 1014.52 1014.32 1014.16 1014.04 1013.88 1013.72 1013.64 1013.56 1013.40 1013.28 1013.16 1013.08 1012.96 1012.84 1012.76 1012.68 1012.56 1012.44 1012.20 1012.00 1011.84 1011.76 1011.72 1011.72 1011.56 1011.44 1011.12 1010.88 1010.64 1010.44 1010.32 1010.36 1010.44 1010.52 1010.56 1010.56 1010.64 1010.64 1010.68 1010.68 1010.72 1010.72 1010.72 1010.68 1010.56 1010.48 1010.44 1010.40 1010.32 1010.40 1010.44 1010.52 1010.56 1010.56
1017.00 1016.80 1016.60 1016.44 1016.28 1016.16 1015.96 1015.80 1015.64 1015.48 1015.28 1015.04 1014.88 1014.72 1014.52 1014.32 1014.16 1014.00 1013.88 1013.72 1013.52 1013.40 1013.28 1013.16 1013.00 1012.88 1012.80 1012.64 1012.52 1012.40 1012.28 1012.20 1012.08 1012.00 1011.84 1011.60 1011.48 1011.40 1011.32 1011.24 1011.08 1010.92 1010.72 1010.44 1010.16 1009.96 1009.84 1009.80 1009.80 1009.84 1009.92 1010.00 1010.04 1010.08 1010.12 1010.12 1010.16 1010.16 1010.16 1010.16 1010.12 1010.04 1010.00 1009.96 1009.88 1009.92 1010.00 1010.08 1010.12
1016.84 1016.72 1016.52 1016.28 1016.16 1016.00 1015.80 1015.60 1015.44 1015.28 1015.08 1014.88 1014.76 1014.56 1014.32 1014.12 1014.00 1013.84 1013.72 1013.56 1013.36 1013.20 1013.04 1012.92 1012.80 1012.64 1012.48 1012.32 1012.20 1012.08 1011.92 1011.80 1011.72 1011.60 1011.56 1011.40 1011.28 1011.12 1011.00 1010.84 1010.72 1010.56 1010.44 1010.20 1009.96 1009.80 1009.72 1009.56 1009.44 1009.40 1009.44 1009.56 1009.56 1009.52 1009.48 1009.48 1009.56 1009.60 1009.68 1009.64 1009.60 1009.56 1009.48 1009.44 1009.40 1009.44 1009.48 1009.52 1009.56
1016.72 1016.56 1016.36 1016.16 1016.00 1015.84 1015.60 1015.44 1015.28 1015.12 1014.92 1014.72 1014.56 1014.32 1014.12 1013.96 1013.84 1013.72 1013.56 1013.40 1013.16 1013.00 1012.84 1012.68 1012.52 1012.36 1012.16 1012.00 1011.88 1011.72 1011.60 1011.48 1011.36 1011.28 1011.16 1011.08 1011.00 1010.84 1010.68 1010.44 1010.28 1010.16 1010.00 1009.84 1009.72 1009.56 1009.48 1009.40 1009.28 1009.12 1009.08 1009.04 1009.00 1008.96 1009.00 1009.00 1009.00 1009.00 1009.04 1009.04 1009.00 1008.92 1008.88 1008.88 1008.84 1008.92 1008.96 1009.00 1009.00
1016.60 1016.44 1016.24 1016.12 1015.88 1015.68 1015.44 1015.28 1015.12 1014.92 1014.72 1014.56 1014.32 1014.16 1013.96 1013.84 1013.68 1013.52 1013.36 1013.20 1013.04 1012.84 1012.68 1012.44 1012.24 1012.08 1011.96 1011.84 1011.64 1011.48 1011.32 1011.20 1011.08 1011.00 1010.88 1010.76 1010.60 1010.44 1010.28 1010.12 1009.92 1009.72 1009.56 1009.48 1009.40 1009.28 1009.20 1009.12 1009.00 1008.88 1008.72 1008.64 1008.56 1008.52 1008.44 1008.48 1008.48 1008.44 1008.40 1008.36 1008.28 1008.28 1008.28 1008.32 1008.36 1008.36 1008.40 1008.44 1008.44
1016.44 1016.28 1016.16 1016.00 1015.72 1015.48 1015.28 1015.12 1014.96 1014.76 1014.56 1014.36 1014.16 1014.00 1013.84 1013.68 1013.48 1013.36 1013.20 1013.04 1012.84 1012.68 1012.44 1012.28 1012.04 1011.88 1011.72 1011.56 1011.40 1011.24 1011.04 1010.84 1010.76 1010.72 1010.56 1010.44 1010.28 1010.12 1009.92 1009.72 1009.56 1009.44 1009.28 1009.16 1009.08 1009.00 1008.88 1008.76 1008.64 1008.52 1008.40 1008.20 1008.16 1008.12 1008.08 1008.04 1008.00 1007.96 1007.84 1007.72 1007.72 1007.72 1007.72 1007.72 1007.76 1007.84 1007.84 1007.88 1007.96
1016.32 1016.16 1016.00 1015.80 1015.60 1015.40 1015.16 1014.92 1014.72 1014.56 1014.36 1014.16 1014.00 1013.84 1013.68 1013.52 1013.32 1013.16 1013.00 1012.84 1012.64 1012.36 1012.16 1012.04 1011.92 1011.72 1011.48 1011.28 1011.16 1011.00 1010.84 1010.60 1010.48 1010.40 1010.28 1010.20 1010.00 1009.72 1009.56 1009.40 1009.24 1009.08 1008.96 1008.84 1008.80 1008.72 1008.56 1008.44 1008.28 1008.16 1008.00 1007.88 1007.84 1007.80 1007.72 1007.68 1007.60 1007.52 1007.40 1007.28 1007.16 1007.12 1007.12 1007.16 1007.24 1007.28 1007.36 1007.44 1007.44
1016.16 1016.00 1015.84 1015.68 1015.48 1015.24 1015.00 1014.76 1014.56 1014.40 1014.20 1014.04 1013.88 1013.72 1013.52 1013.36 1013.16 1013.00 1012.80 1012.64 1012.44 1012.20 1012.00 1011.84 1011.68 1011.44 1011.24 1011.04 1010.88 1010.72 1010.56 1010.40 1010.20 1010.04 1009.92 1009.80 1009.64 1009.44 1009.24 1009.08 1008.92 1008.76 1008.64 1008.52 1008.44 1008.32 1008.20 1008.04 1007.92 1007.76 1007.64 1007.56 1007.44 1007.40 1007.36 1007.28 1007.16 1007.08 1006.96 1006.84 1006.72 1006.72 1006.72 1006.72 1006.72 1006.76 1006.84 1006.88 1006.96
1016.04 1015.88 1015.72 1015.56 1015.32 1015.08 1014.84 1014.64 1014.44 1014.24 1014.04 1013.88 1013.72 1013.56 1013.40 1013.16 1012.96 1012.76 1012.56 1012.40 1012.24 1012.04 1011.84 1011.64 1011.44 1011.20 1011.00 1010.84 1010.64 1010.44 1010.24 1010.08 1009.92 1009.72 1009.56 1009.44 1009.28 1009.16 1008.96 1008.72 1008.56 1008.44 1008.28 1008.16 1008.04 1007.92 1007.80 1007.68 1007.52 1007.40 1007.28 1007.16 1007.08 1007.00 1006.92 1006.84 1006.72 1006.60 1006.52 1006.44 1006.36 1006.36 1006.36 1006.36 1006.28 1006.28 1006.32 1006.36 1006.44
1015.92 1015.76 1015.56 1015.40 1015.16 1014.92 1014.72 1014.48 1014.28 1014.12 1013.96 1013.76 1013.56 1013.40 1013.20 1013.00 1012.80 1012.56 1012.36 1012.16 1012.00 1011.80 1011.60 1011.40 1011.16 1010.96 1010.72 1010.56 1010.44 1010.20 1009.96 1009.72 1009.56 1009.40 1009.24 1009.12 1009.00 1008.84 1008.72 1008.48 1008.24 1008.04 1007.88 1007.80 1007.68 1007.56 1007.40 1007.28 1007.12 1007.00 1006.84 1006.76 1006.68 1006.60 1006.52 1006.44 1006.32 1006.24 1006.16 1006.08 1006.00 1005.96 1005.92 1005.92 1005.92 1005.88 1005.84 1005.88 1005.92
1015.80 1015.64 1015.44 1015.24 1015.04 1014.84 1014.56 1014.36 1014.16 1014.00 1013.84 1013.64 1013.40 1013.12 1012.96 1012.84 1012.64 1012.44 1012.16 1011.92 1011.72 1011.48 1011.28 1011.08 1010.84 1010.68 1010.44 1010.28 1010.16 1010.00 1009.76 1009.48 1009.28 1009.12 1009.00 1008.84 1008.72 1008.56 1008.40 1008.16 1007.88 1007.72 1007.56 1007.48 1007.36 1007.24 1007.08 1006.92 1006.80 1006.64 1006.52 1006.44 1006.36 1006.28 1006.16 1006.04 1006.00 1005.88 1005.84 1005.72 1005.64 1005.56 1005.56 1005.56 1005.56 1005.52 1005.48 1005.52 1005.52
1015.68 1015.52 1015.32 1015.12 1014.88 1014.68 1014.44 1014.28 1014.00 1013.84 1013.64 1013.44 1013.24 1013.00 1012.72 1012.56 1012.36 1012.16 1011.96 1011.72 1011.48 1011.28 1011.04 1010.80 1010.56 1010.40 1010.20 1010.00 1009.84 1009.64 1009.48 1009.28 1009.04 1008.84 1008.68 1008.56 1008.40 1008.28 1008.04 1007.76 1007.52 1007.32 1007.24 1007.16 1007.04 1006.96 1006.84 1006.64 1006.48 1006.32 1006.24 1006.16 1006.08 1006.00 1005.84 1005.76 1005.68 1005.56 1005.48 1005.44 1005.32 1005.24 1005.20 1005.20 1005.16 1005.12 1005.12 1005.12 1005.12
1015.52 1015.40 1015.20 1015.00 1014.76 1014.56 1014.32 1014.12 1013.92 1013.72 1013.48 1013.28 1013.08 1012.84 1012.60 1012.36 1012.12 1011.84 1011.72 1011.52 1011.32 1011.04 1010.80 1010.56 1010.36 1010.16 1009.96 1009.76 1009.56 1009.36 1009.16 1009.00 1008.80 1008.60 1008.40 1008.24 1008.08 1007.96 1007.72 1007.44 1007.24 1007.04 1006.92 1006.84 1006.76 1006.68 1006.52 1006.36 1006.20 1006.08 1006.00 1005.92 1005.80 1005.72 1005.60 1005.52 1005.40 1005.28 1005.16 1005.08 1005.00 1004.92 1004.88 1004.84 1004.84 1004.84 1004.80 1004.76 1004.76
1015.36 1015.24 1015.08 1014.88 1014.68 1014.44 1014.20 1014.00 1013.80 1013.56 1013.36 1013.12 1012.84 1012.64 1012.44 1012.24 1011.96 1011.72 1011.48 1011.28 1011.12 1010.88 1010.56 1010.36 1010.16 1009.92 1009.72 1009.56 1009.32 1009.08 1008.84 1008.68 1008.56 1008.36 1008.16 1007.96 1007.84 1007.68 1007.44 1007.20 1006.96 1006.72 1006.60 1006.56 1006.48 1006.36 1006.20 1006.04 1005.92 1005.80 1005.72 1005.64 1005.52 1005.40 1005.28 1005.24 1005.12 1005.00 1004.88 1004.80 1004.72 1004.60 1004.56 1004.56 1004.52 1004.48 1004.44 1004.44 1004.36
1015.20 1015.08 1014.92 1014.80 1014.56 1014.28 1014.08 1013.84 1013.68 1013.44 1013.24 1012.96 1012.68 1012.44 1012.20 1012.00 1011.76 1011.52 1011.28 1011.12 1010.96 1010.76 1010.52 1010.20 1009.96 1009.72 1009.52 1009.32 1009.12 1008.84 1008.56 1008.36 1008.24 1008.12 1007.96 1007.72 1007.56 1007.40 1007.20 1006.96 1006.68 1006.44 1006.32 1006.28 1006.16 1006.04 1005.88 1005.72 1005.60 1005.48 1005.40 1005.32 1005.24 1005.12 1005.04 1005.00 1004.88 1004.72 1004.60 1004.52 1004.44 1004.32 1004.24 1004.20 1004.20 1004.16 1004.08 1004.04 1003.92
1015.00 1014.84 1014.72 1014.64 1014.44 1014.16 1013.92 1013.72 1013.48 1013.28 1013.08 1012.84 1012.56 1012.28 1012.04 1011.84 1011.56 1011.28 1011.08 1010.88 1010.76 1010.56 1010.40 1010.12 1009.80 1009.56 1009.32 1009.12 1008.96 1008.64 1008.36 1008.08 1007.92 1007.84 1007.72 1007.52 1007.32 1007.12 1006.92 1006.72 1006.44 1006.24 1006.04 1005.96 1005.84 1005.72 1005.60 1005.44 1005.32 1005.20 1005.12 1005.12 1005.00 1004.96 1004.88 1004.80 1004.68 1004.52 1004.36 1004.24 1004.16 1004.04 1003.96 1003.84 1003.84 1003.84 1003.76 1003.72 1003.60
1014.84 1014.68 1014.52 1014.40 1014.20 1014.04 1013.84 1013.56 1013.28 1013.04 1012.84 1012.64 1012.44 1012.16 1011.88 1011.64 1011.40 1011.12 1010.92 1010.76 1010.56 1010.40 1010.16 1009.92 1009.64 1009.36 1009.16 1009.00 1008.76 1008.52 1008.20 1007.92 1007.68 1007.52 1007.44 1007.28 1007.08 1006.88 1006.72 1006.52 1006.28 1006.08 1005.88 1005.72 1005.60 1005.48 1005.36 1005.20 1005.08 1004.96 1004.88 1004.84 1004.80 1004.72 1004.64 1004.56 1004.44 1004.24 1004.08 1003.96 1003.84 1003.80 1003.72 1003.56 1003.52 1003.48 1003.44 1003.40 1003.32
Wind_Speed
6 6 6 5 5 5 5 5 6 6 5 5 5 5 5 5 6 6 6 5 6 6 6 6 6 6 6 6 7 8 9 9 10 11 11 12 12 12 12 12 11 11 11 11 11 10 9 9 8 7 6 7 7 8 8 8 9 9 10 10 10 10 11 13 13 14 15 15 12
7 7 6 6 6 5 5 5 5 6 6 5 5 5 5 5 6 6 6 6 6 6 6 6 6 6 6 7 7 8 8 9 9 10 11 12 12 12 11 11 11 11 12 12 11 9 8 8 8 7 6 6 7 8 9 9 9 10 11 12 10 9 10 11 13 14 14 14 13
6 6 5 5 5 5 5 5 6 6 6 6 5 5 5 5 5 6 6 6 6 5 5 6 6 6 7 7 7 7 8 8 9 9 10 10 11 11 11 10 11 11 11 11 10 9 9 8 7 7 7 7 8 8 9 9 9 10 11 12 10 9 9 10 11 11 11 11 12
5 5 5 6 7 7 7 6 7 7 7 6 5 5 5 5 5 5 6 6 5 6 6 6 6 6 6 7 7 7 7 8 8 9 9 10 10 10 10 10 10 11 11 11 10 10 9 8 7 7 7 8 9 9 9 8 9 9 9 9 8 8 9 9 9 9 8 9 9
5 6 6 7 8 8 8 6 7 7 6 4 4 4 4 5 5 5 5 5 6 7 7 7 6 6 6 6 7 7 7 8 9 9 9 9 9 9 9 10 10 10 10 10 10 10 9 8 7 6 7 8 8 8 9 9 9 8 7 7 7 8 8 8 8 7 7 7 7
5 6 6 6 7 7 7 6 7 7 6 4 4 5 5 5 4 5 6 6 7 7 7 6 6 7 7 6 6 7 7 7 7 7 8 9 9 9 9 9 10 10 10 9 9 9 9 8 7 7 7 7 8 9 9 9 9 8 8 7 8 7 7 8 7 7 7 8 9
6 6 6 7 7 7 7 6 6 6 5 4 5 7 8 7 6 6 7 7 6 6 5 5 6 6 6 6 6 6 6 6 6 7 7 8 8 8 9 9 9 9 9 9 9 8 8 8 7 7 7 8 8 9 9 9 9 9 9 9 8 7 8 9 7 7 8 11 12
7 7 7 7 7 7 7 7 6 5 5 5 7 9 10 8 8 8 7 6 6 6 5 4 5 5 6 6 7 7 7 6 6 7 7 8 8 9 9 9 9 9 9 9 8 8 8 7 7 7 8 7 8 8 9 10 10 10 11 11 9 8 7 7 7 8 9 12 13
8 8 9 8 8 8 8 7 6 6 6 7 9 9 9 9 8 8 7 6 6 6 5 4 5 5 5 6 7 7 7 7 7 7 7 7 8 9 9 8 8 9 8 8 8 8 8 7 7 7 8 8 8 8 9 9 10 11 12 12 10 9 9 9 9 9 10 12 13
10 9 9 8 8 7 7 6 6 7 7 9 10 10 9 9 9 8 7 6 5 5 5 5 5 5 5 6 7 7 7 6 7 7 7 7 8 9 9 8 8 9 8 8 7 8 8 7 8 9 9 9 10 10 10 9 11 12 12 11 11 11 12 11 11 11 12 12 13
11 10 9 8 8 7 6 6 6 7 8 9 10 10 9 9 9 8 6 4 4 5 6 5 5 6 6 7 7 7 7 6 6 7 7 8 8 9 9 9 9 9 9 8 7 7 7 7 9 10 11 10 10 11 10 10 11 12 13 11 12 13 13 13 13 12 12 12 14
11 10 10 9 8 7 6 6 6 7 8 9 10 10 9 8 8 7 5 5 6 7 7 5 6 6 7 7 7 7 7 6 7 7 7 8 9 9 9 9 9 10 10 9 7 7 7 8 10 11 12 12 10 10 10 11 12 13 14 14 13 14 14 15 14 13 12 12 13
9 9 9 9 8 7 6 7 7 7 8 10 10 9 9 8 7 6 5 6 7 7 6 5 5 6 7 7 6 6 6 6 7 7 7 8 8 9 9 9 9 10 10 9 8 8 8 9 11 12 13 13 11 11 11 12 12 13 14 15 15 15 15 16 15 14 13 13 14
9 9 9 9 9 7 7 7 8 8 9 10 11 10 9 8 7 6 6 7 8 7 6 4 5 6 6 7 7 7 7 7 7 7 8 8 8 9 9 9 9 10 9 9 8 9 10 11 12 13 13 14 13 13 13 12 13 14 14 15 16 16 17 16 15 14 14 15 15
9 9 9 8 8 8 8 8 8 8 9 11 11 10 9 8 6 6 6 7 8 7 6 5 5 6 6 7 7 7 7 6 7 7 8 9 9 9 9 10 10 10 9 9 9 10 11 12 13 13 14 14 14 14 13 13 13 14 14 15 16 17 17 16 15 15 15 16 16
9 9 9 7 7 8 8 8 8 8 9 10 10 10 9 8 6 5 5 7 7 6 6 6 6 6 6 6 7 7 6 6 7 7 8 9 10 10 10 10 11 11 10 10 10 10 11 12 12 13 14 14 14 14 14 14 14 14 15 15 16 16 16 16 16 15 15 16 17
10 10 9 7 8 9 9 9 8 8 9 10 11 10 9 8 7 6 6 7 6 6 7 8 7 6 6 6 6 6 6 6 7 8 9 10 10 10 11 11 11 11 11 10 11 11 11 12 12 12 13 14 14 14 14 14 13 14 15 15 16 16 16 16 16 16 16 16 17
10 10 9 9 9 10 10 10 9 9 10 11 11 10 9 8 8 8 7 7 7 7 8 9 8 7 7 7 6 5 5 6 7 8 9 10 10 10 11 11 11 11 11 10 11 12 12 12 12 12 12 12 13 13 13 13 13 14 14 15 15 16 16 16 16 16 15 16 17
10 10 10 10 10 10 10 11 11 11 11 11 10 10 10 9 9 9 9 8 7 7 8 9 8 8 8 8 8 7 6 6 8 9 9 9 10 10 11 11 11 11 11 11 11 12 12 12 12 11 11 11 12 12 12 12 13 13 14 14 15 15 15 16 16 15 15 16 17
10 10 10 10 10 10 11 11 11 11 10 10 10 11 11 11 10 10 10 10 9 8 7 8 9 9 9 9 9 8 7 6 8 9 10 9 10 11 11 12 12 11 11 11 11 12 12 12 11 11 11 11 11 12 12 12 12 13 13 13 14 15 15 15 15 15 15 16 16
10 10 10 10 10 11 11 11 11 10 10 11 11 11 11 11 11 10 11 11 10 9 8 9 10 10 10 10 10 10 9 7 8 9 10 10 11 12 12 11 11 11 11 11 11 12 12 11 11 11 10 11 11 12 12 12 12 13 13 13 13 14 15 14 14 15 15 16 16
10 10 10 10 10 10 11 11 10 10 10 11 11 11 11 11 11 11 11 10 9 9 10 10 11 11 11 11 11 11 10 9 9 10 10 10 11 11 11 10 11 11 11 11 12 12 12 11 11 11 10 10 11 12 12 12 12 13 13 14 14 14 14 14 14 14 15 16 16
10 10 10 10 10 10 11 11 10 10 10 11 11 11 11 11 11 11 10 9 9 10 10 10 10 11 11 11 11 11 11 11 11 11 11 11 12 12 11 10 10 11 12 12 12 12 12 11 11 11 11 11 12 12 13 13 13 13 13 14 14 14 14 14 14 14 14 15 15
10 10 10 9 9 10 10 10 10 10 11 11 11 11 11 11 11 11 10 10 10 10 10 10 10 10 11 11 11 11 11 12 13 13 13 13 12 12 12 11 11 12 12 12 13 13 13 11 10 10 11 11 12 12 13 13 13 13 14 14 14 14 14 14 14 14 14 15 15
10 10 10 10 10 10 10 10 10 10 11 11 11 11 11 11 11 11 10 11 11 11 11 11 11 10 10 10 11 11 11 12 13 14 14 14 13 13 12 11 11 11 11 12 16 19 20 17 13 11 10 10 11 11 12 12 13 14 14 14 14 14 14 14 14 14 14 15 15
10 10 10 10 10 10 10 10 10 11 11 11 11 11 11 11 11 10 10 11 11 11 11 11 11 11 10 10 11 11 12 11 12 13 14 14 14 14 13 11 11 10 10 12 18 22 24 23 20 16 12 10 10 10 11 11 13 13 14 14 14 14 14 14 14 14 15 14 15
10 10 10 10 10 11 11 11 10 10 11 11 11 11 11 11 10 10 11 11 12 12 11 10 10 10 11 10 11 12 12 11 11 12 13 13 14 14 14 13 11 10 10 14 20 23 24 24 24 22 17 11 10 10 10 11 12 13 13 14 14 15 15 15 15 15 15 14 15
10 10 10 10 11 11 11 11 11 11 11 11 11 11 11 11 11 11 11 12 12 11 10 10 9 8 8 7 9 11 12 12 11 11 12 12 13 14 15 14 12 12 13 17 21 23 24 24 24 24 21 15 11 10 10 11 11 12 12 13 13 14 15 15 15 15 15 15 15
11 10 10 11 11 11 11 11 11 11 11 11 12 12 11 11 11 12 12 12 12 11 10 9 8 7 7 8 10 11 12 12 11 11 11 12 13 14 14 15 14 15 17 21 23 24 24 24 24 25 24 21 14 10 9 9 10 11 11 11 11 12 13 14 13 14 14 14 14
10 10 10 11 11 11 11 11 11 12 11 11 11 11 12 12 12 12 12 12 12 11 10 9 9 9 10 11 11 12 12 12 11 11 12 13 14 14 14 15 14 15 17 21 23 24 24 25 25 25 25 24 18 12 9 9 10 10 11 11 11 12 13 13 14 14 14 13 14
10 10 10 11 11 11 11 12 12 12 11 11 11 12 12 12 12 12 11 11 11 11 11 10 11 12 13 13 12 12 13 13 12 12 12 13 14 15 15 15 15 15 17 21 23 24 25 25 25 25 25 24 19 14 10 10 11 11 12 12 13 13 13 12 13 13 14 14 14
10 10 10 10 11 11 11 11 12 12 12 12 12 12 12 12 12 11 10 10 10 11 12 11 12 13 14 13 13 13 13 13 13 13 12 13 14 14 15 15 15 15 17 21 23 24 24 25 25 25 25 24 21 16 13 12 12 12 13 13 14 14 13 11 11 12 14 15 15
10 10 10 10 11 11 11 11 12 12 12 12 12 12 12 13 12 11 11 10 10 10 11 11 12 13 13 13 13 14 14 13 14 14 14 14 14 14 15 15 14 14 17 21 22 23 24 24 24 24 25 25 21 17 14 13 12 11 11 12 13 13 14 14 13 13 13 14 14
9 9 10 10 11 11 11 12 11 12 12 13 13 12 12 12 12 12 11 10 9 9 10 10 11 11 11 11 12 13 14 14 14 14 14 14 14 14 14 14 12 14 17 21 23 23 24 24 24 24 25 25 19 15 12 12 11 11 11 12 13 13 14 14 14 14 14 14 13
9 9 10 10 11 11 12 12 12 12 12 13 13 13 13 12 12 12 12 12 11 10 10 10 10 10 11 11 11 12 14 15 15 14 14 14 14 14 15 15 14 16 19 22 23 24 24 24 25 25 24 22 16 12 11 12 11 12 12 13 14 14 14 14 14 13 13 13 13
9 9 10 11 11 12 12 12 12 13 13 13 14 14 13 13 12 11 11 12 12 11 11 11 11 10 10 11 11 12 13 14 15 15 14 14 14 14 15 15 15 17 20 22 23 24 24 24 25 25 23 19 13 10 10 10 10 11 12 13 14 14 14 14 13 13 12 12 12
9 10 11 12 12 12 13 13 13 13 14 14 14 13 13 13 13 12 11 11 11 12 12 11 12 12 12 12 12 13 13 14 14 15 15 15 14 14 15 15 15 16 18 20 22 23 24 24 24 24 21 16 12 10 10 9 9 10 11 12 13 13 13 12 11 11 11 11 12
10 10 11 12 12 13 13 13 13 14 14 14 13 13 12 12 11 11 11 11 11 12 12 12 13 14 15 15 15 15 15 14 14 14 15 15 14 14 14 15 15 15 16 18 20 22 23 24 24 23 20 15 12 11 10 10 9 10 10 11 12 12 11 10 9 10 10 11 14
11 11 11 11 12 13 13 13 13 14 14 14 14 13 13 12 11 11 11 11 10 11 12 13 14 15 15 16 16 16 16 16 15 14 14 14 14 14 15 16 15 15 15 18 20 22 23 24 24 23 21 16 13 11 10 9 10 11 11 11 11 11 11 9 9 9 10 12 16
11 11 11 11 12 12 13 14 14 14 13 14 14 14 14 12 12 12 12 12 11 11 12 14 16 16 16 16 16 17 17 17 15 15 14 14 15 16 17 16 16 15 16 18 21 22 23 24 24 23 21 15 12 10 9 9 10 11 12 11 11 10 9 9 8 8 9 10 14
10 10 11 12 12 12 13 14 14 14 13 13 14 13 13 12 12 12 12 12 13 13 13 14 15 16 16 16 16 16 17 18 17 16 15 15 15 16 17 16 15 15 16 17 20 22 23 23 23 23 20 15 11 9 9 8 9 11 11 11 10 9 9 9 8 8 8 9 10
Wind_Direction
237 236 235 233 233 234 236 239 239 239 239 239 242 244 243 238 243 248 249 244 244 246 248 248 246 247 245 237 226 222 223 224 224 225 227 228 230 230 230 230 230 231 231 233 231 230 227 223 222 224 227 227 228 230 230 228 226 225 225 225 227 229 229 230 231 231 230 228 229
238 237 238 239 240 241 242 246 246 244 241 238 238 240 240 238 242 247 250 246 244 245 248 252 250 248 246 242 231 226 225 228 226 227 229 231 232 232 231 231 231 230 231 232 231 230 228 223 221 223 227 229 230 231 231 228 225 226 227 227 228 229 229 231 232 232 231 230 229
241 240 239 240 241 241 242 244 244 242 241 241 239 239 240 240 243 247 250 249 249 249 250 254 253 251 248 245 238 231 228 228 228 229 231 234 235 234 233 233 232 232 232 231 230 230 228 223 221 223 226 228 228 231 232 230 225 226 228 228 229 229 231 233 232 232 230 230 227
240 238 235 234 233 232 233 236 239 240 240 240 241 240 240 241 243 247 252 257 258 255 252 252 255 254 250 246 241 236 232 230 228 230 233 237 237 236 235 234 234 234 233 232 231 230 229 224 223 225 227 228 229 231 232 230 225 225 227 228 228 229 230 233 232 229 228 229 226
240 233 229 229 228 229 231 233 238 241 242 240 241 243 243 241 242 247 253 258 255 252 250 249 253 255 254 250 244 240 236 233 231 232 235 238 239 238 236 234 235 235 235 233 231 230 228 223 225 228 230 230 230 231 232 230 227 227 229 229 228 227 229 232 231 228 226 227 225
245 238 233 231 230 233 237 238 239 242 246 246 245 246 246 241 237 237 241 246 249 251 252 251 254 256 257 255 249 245 241 236 234 235 237 240 241 240 238 236 235 235 236 234 232 229 226 221 227 231 232 232 234 234 233 229 228 229 230 232 229 227 228 230 229 227 226 227 226
252 250 245 239 234 235 238 241 242 245 248 249 244 244 244 241 234 232 234 240 248 253 255 254 253 254 256 256 254 251 247 242 239 236 236 240 243 242 239 237 236 235 235 234 231 227 224 219 226 232 235 235 237 235 232 226 226 229 231 233 230 228 226 228 228 227 226 227 226
266 261 255 249 241 239 239 241 242 244 246 244 242 241 242 241 236 234 235 241 246 248 248 249 246 247 249 252 253 252 250 246 243 238 236 238 242 243 242 239 238 236 234 232 228 225 222 219 225 231 234 235 237 236 231 224 224 227 230 233 233 230 226 227 225 225 225 227 226
281 272 265 260 252 247 244 243 241 240 241 244 243 242 241 241 238 237 237 240 241 240 240 239 237 238 241 244 248 250 250 247 245 242 239 237 239 241 242 240 239 237 235 230 225 221 219 220 227 231 233 233 236 236 231 222 222 225 229 233 235 234 230 228 225 224 225 226 227
287 283 280 277 270 264 258 255 249 243 243 247 248 247 246 243 240 236 234 235 238 240 238 233 230 231 234 238 242 245 245 245 244 243 242 240 238 239 239 239 237 236 235 229 222 217 216 220 228 232 233 233 235 236 234 226 224 226 229 233 235 235 234 231 227 225 225 226 227
285 287 288 289 288 288 286 278 266 256 251 252 254 253 250 245 241 237 234 234 240 241 239 231 223 224 229 235 237 239 239 238 239 241 242 242 240 238 237 237 235 235 233 228 219 213 214 220 228 232 234 234 234 235 235 230 228 229 231 235 235 236 236 234 230 227 227 227 228
285 286 287 287 292 296 296 287 279 270 263 259 259 257 253 247 241 237 233 231 236 240 240 230 219 220 225 233 234 234 234 233 234 237 241 243 242 241 239 237 236 235 233 228 218 213 214 220 226 230 233 234 233 233 233 231 229 231 233 236 235 236 237 237 233 230 229 228 230
286 286 286 286 288 288 286 281 278 274 270 266 264 261 256 251 242 234 228 228 234 239 241 231 218 217 222 230 232 232 231 230 230 233 238 242 243 242 240 239 237 235 234 230 220 215 216 220 224 227 231 232 232 231 230 229 229 230 233 236 236 236 237 237 235 233 231 231 232
289 288 286 286 287 285 281 277 276 273 271 269 267 265 261 258 245 232 224 228 236 241 243 237 226 222 223 227 230 231 230 230 230 233 237 242 243 243 242 241 238 236 234 231 222 217 217 222 223 225 228 231 231 231 229 227 227 229 231 234 235 236 237 237 235 233 232 232 233
293 291 289 288 288 286 282 279 277 275 274 272 271 270 269 267 254 237 228 232 241 244 246 245 242 236 231 227 229 232 233 233 233 235 240 245 245 244 243 243 241 239 236 233 226 221 220 223 224 225 226 229 231 231 230 227 228 229 230 232 234 236 237 237 235 233 231 231 234
297 296 294 293 292 289 285 281 280 279 278 277 277 278 278 277 269 256 244 243 248 251 252 251 250 248 241 233 230 231 234 236 236 239 242 246 247 246 245 245 243 241 238 235 231 228 225 225 225 225 226 228 230 231 230 228 228 230 231 232 234 236 237 237 235 234 232 231 233
301 299 298 297 294 291 288 284 283 282 281 281 282 282 282 282 282 276 266 259 262 264 264 260 259 259 257 251 239 233 233 237 238 240 242 246 247 247 247 246 245 243 240 236 235 233 232 230 229 227 227 229 230 231 231 230 230 230 232 233 235 236 237 237 236 235 233 233 234
303 302 300 299 296 292 290 287 286 285 283 283 284 284 283 283 284 283 279 272 270 271 273 274 275 273 271 269 260 249 240 241 243 244 245 247 249 250 251 250 249 247 243 239 237 237 236 234 232 230 229 230 231 232 232 231 231 232 233 234 236 237 237 238 237 236 235 234 235
304 303 302 301 297 295 293 291 290 288 287 286 286 286 285 283 282 282 281 278 272 269 272 278 281 280 277 274 273 268 259 251 252 252 252 252 254 255 256 256 256 254 251 247 244 242 240 239 236 233 232 233 234 234 234 233 233 233 234 235 236 237 238 238 237 236 236 235 236
304 303 303 301 299 297 296 294 293 292 291 290 289 288 287 285 282 281 279 278 274 270 268 269 272 273 273 271 272 270 266 259 258 257 257 255 255 256 256 257 259 258 256 253 251 249 247 245 242 239 236 235 236 237 237 236 236 236 236 237 237 238 238 237 237 236 236 235 236
304 303 301 301 300 298 297 295 294 294 293 292 291 289 288 287 284 281 277 276 276 273 268 263 264 265 267 268 268 267 264 260 255 254 255 254 252 252 252 254 257 258 257 255 254 253 251 250 248 244 242 239 240 240 239 239 239 239 238 238 238 238 238 237 236 236 235 235 236
303 303 302 301 299 297 296 296 296 296 295 294 292 290 288 287 284 280 277 275 275 272 269 265 264 264 264 265 265 265 265 264 257 254 253 253 252 251 251 250 252 254 255 254 253 252 251 250 248 246 244 243 243 242 241 241 242 242 241 240 240 239 238 236 235 235 235 235 235
302 303 302 300 298 298 297 297 298 297 296 295 293 291 289 287 284 282 280 277 275 272 270 268 267 266 265 264 263 264 266 267 263 259 256 254 255 254 252 249 247 248 249 248 247 246 246 246 244 241 239 239 241 242 242 242 243 243 243 243 242 240 239 237 235 235 234 234 234
301 301 301 300 299 299 299 299 299 299 297 296 294 293 291 289 287 286 284 281 277 274 272 272 271 270 268 267 265 264 264 265 266 265 262 258 257 256 255 251 246 243 242 241 238 236 235 235 235 234 232 232 235 238 239 239 240 242 243 243 243 242 240 238 235 234 234 234 234
299 299 299 299 299 299 299 300 299 298 297 296 295 294 292 291 290 288 286 284 281 279 276 276 275 274 272 271 267 264 261 261 264 266 267 266 262 260 258 256 253 249 245 243 241 239 237 234 231 228 226 226 229 232 235 236 237 238 240 241 241 242 242 241 238 235 233 233 233
298 298 298 297 298 299 300 299 298 297 296 296 296 295 293 292 290 289 288 287 285 284 282 280 279 278 276 273 270 267 264 261 262 264 266 268 268 266 263 261 259 257 254 252 249 247 245 242 238 235 230 225 225 228 232 234 234 235 236 238 239 240 241 243 241 238 234 232 231
298 297 297 297 298 298 298 297 298 298 298 297 297 295 294 293 292 292 290 288 288 287 286 284 281 279 278 275 272 270 268 266 265 264 264 266 268 269 268 266 263 260 258 257 257 256 254 251 248 245 241 232 228 228 231 235 234 234 234 236 237 238 239 241 241 240 238 235 232
296 296 297 298 298 297 297 298 299 299 299 298 297 296 295 295 294 292 291 289 289 289 289 287 283 281 279 276 273 271 270 269 269 268 267 267 267 268 268 268 267 264 261 261 262 262 261 259 257 254 250 245 239 234 234 237 238 236 235 235 236 237 237 238 239 239 239 237 234
294 295 297 298 297 297 298 300 300 299 299 298 297 296 296 296 295 293 292 291 291 290 289 289 287 285 282 279 277 276 275 273 272 271 271 270 269 268 268 269 269 268 267 267 268 267 266 264 262 260 258 256 252 246 240 240 242 243 241 239 236 235 234 234 235 236 237 237 236
294 295 296 296 296 297 298 298 298 299 299 299 299 298 298 298 297 296 294 294 291 289 287 287 287 285 283 280 280 280 279 277 275 273 272 272 271 270 270 269 269 269 270 270 270 270 269 267 265 264 263 263 261 258 252 247 248 249 249 248 244 239 235 233 233 234 235 236 236
294 295 295 295 296 296 297 297 299 300 300 301 301 301 300 299 298 297 296 294 292 290 288 287 285 283 282 280 280 280 279 278 277 275 273 272 272 272 272 272 270 270 270 271 271 270 269 267 266 266 266 267 267 263 257 252 251 251 252 253 251 248 243 239 235 233 233 234 235
294 294 294 295 296 296 297 298 300 302 302 302 302 302 301 300 298 296 295 294 293 293 292 290 287 285 284 284 282 281 279 279 278 276 273 271 271 272 273 273 272 271 270 271 270 269 268 267 267 267 268 269 268 266 261 256 254 253 254 255 255 254 253 250 246 240 236 233 232
294 295 295 296 296 297 298 300 302 303 304 304 303 303 302 300 299 298 297 296 295 294 293 291 289 288 288 287 286 285 283 281 280 278 277 275 274 274 274 275 273 272 271 271 270 269 268 267 267 268 269 270 270 267 263 259 257 256 257 257 257 257 257 256 254 250 243 237 233
297 297 297 297 298 299 301 302 303 304 304 305 304 303 302 301 301 301 300 299 297 294 292 290 289 288 287 287 286 286 286 285 283 282 280 279 277 276 275 274 273 272 272 272 271 270 270 270 271 272 273 274 274 271 267 263 262 261 261 262 262 261 260 258 257 254 249 242 236
299 300 301 301 302 303 303 304 304 305 305 304 303 303 302 300 300 299 299 299 298 296 293 291 288 287 287 286 285 285 285 285 284 282 281 279 278 276 274 273 272 271 271 272 272 272 272 273 274 276 277 278 276 273 269 266 266 265 264 264 264 263 262 260 258 255 251 245 239
303 304 305 305 305 305 305 305 305 305 304 303 302 302 301 300 299 298 298 299 298 296 294 293 292 291 290 289 288 286 285 284 284 283 282 280 278 276 274 273 272 271 271 271 272 272 273 275 277 278 279 279 277 273 270 268 268 267 266 266 265 264 262 261 259 256 253 248 241
307 307 306 306 305 305 305 305 305 304 303 301 301 300 300 299 299 299 298 299 298 296 295 295 295 294 293 293 291 290 287 286 285 284 283 281 279 277 275 274 273 272 271 271 273 274 275 277 279 280 280 280 276 273 272 271 270 269 268 268 267 265 264 262 260 257 254 249 242
309 307 306 305 304 303 303 303 303 302 300 300 299 298 298 298 298 298 298 299 298 297 297 297 296 296 295 295 294 292 290 288 286 284 283 282 279 277 276 276 275 273 273 273 275 276 277 279 280 280 281 279 277 276 275 275 274 273 272 271 271 268 265 262 260 258 255 249 245
307 306 304 303 302 301 301 301 300 299 298 298 298 297 297 297 297 297 297 298 297 296 297 297 297 296 296 297 296 295 293 291 288 286 284 282 280 278 277 277 276 276 276 276 278 279 280 281 281 282 282 280 279 279 279 278 277 275 274 273 272 269 266 261 260 258 255 251 250
305 303 302 300 299 299 299 299 297 296 296 296 296 296 296 296 296 296 297 297 297 297 297 296 296 296 297 298 297 296 295 294 292 289 286 284 282 281 281 279 279 279 280 280 281 281 281 282 282 282 282 281 280 279 278 277 275 274 273 271 270 269 267 263 260 258 256 252 252
302 302 300 298 297 297 297 297 296 296 295 294 293 293 294 295 296 297 298 299 299 298 297 297 296 297 297 298 297 296 295 295 293 291 289 287 285 284 283 282 281 281 281 281 281 281 281 280 281 282 282 281 279 276 274 273 272 272 271 270 270 271 271 270 265 261 256 252 251